Location: Unspecified
(49.2170°N, 0.0000°E)
Time: 20:02:47
(UTC+00:00)

Tiros 1 despin weight - Pass Details

Date: 29 January 2021
Orbit: 593 x 642 km, 48.2° (Epoch: 26 February)

Event Time Altitude Azimuth Distance (km) Brightness Sun altitude
Rises 14:52:28 0° 265° (W) 2,897 ? 14.3°
Reaches altitude 10° 14:54:47 10° 264° (W) 1,983 ? 14.1°
Maximum altitude 14:59:20 80° 179° (S) 626 ? 13.6°
Drops below altitude 10° 15:03:50 10° 92° (E) 1,952 ? 13.1°
Sets 15:06:06 0° 91° (E) 2,848 ? 12.8°
